Regional Weather Roundup
Issued by NWS Portland, ME

Current Version | Previous Version | Text Only | Print | Product List | Glossary On
Versions: 1 2 3 4 5 6 7 8 9 10 11 12 13 14 15 16 17 18 19 20 21 22 23 24 25 26 27 28 29 30 31 32 33 34 35 36 37 38 39 40 41 42 43 44 45 46 47 48 49 50
000
ASUS41 KGYX 260610
RWRGYX
WEATHER ROUNDUP FOR MAINE AND NEW HAMPSHIRE
NATIONAL WEATHER SERVICE GRAY ME
100 AM EST WED NOV 26 2014

MEZ002-005-006-010-012-015-018-020-021-024-026-027-029-260700-
MAINE

CITY           SKY/WX    TMP DP  RH WIND       PRES   REMARKS
PORTLAND       CLOUDY    44  27  51 SW7       30.10R
6HR MIN TEMP:  44; 6HR MAX TEMP:  51;

SANFORD        PTCLDY    39  27  60 SW5       30.11R
BAR HARBOR     MOCLDY    41  34  75 CALM      30.08R
WISCASSET      CLOUDY    34  32  92 CALM      30.10R
6HR MIN TEMP:  34; 6HR MAX TEMP:  50;

ROCKLAND       CLOUDY    37  30  75 CALM      30.07R
FRYEBURG       MOCLDY    44  24  45 W8G22     30.06S
6HR MIN TEMP:  34; 6HR MAX TEMP:  46;

LEWISTONAUBURN MOCLDY    39  25  56 S6        30.05F
AUGUSTA        CLOUDY    39  25  57 SW5       30.06R
6HR MIN TEMP:  39; 6HR MAX TEMP:  49;

WATERVILLE     CLOUDY    41  25  52 SW3       30.03R
BANGOR         MOCLDY    44  25  47 SW6       30.06R
6HR MIN TEMP:  42; 6HR MAX TEMP:  49;

GREENVILLE       N/A     39  25  57 VRB6      29.97R
6HR MIN TEMP:  35; 6HR MAX TEMP:  40;

MILLINOCKET    CLOUDY    44  26  49 W9        30.01R
6HR MIN TEMP:  39; 6HR MAX TEMP:  46;

HOULTON        CLOUDY    43  24  47 W14G28    29.94R
6HR MIN TEMP:  40; 6HR MAX TEMP:  44;

PRESQUE ISLE   MOCLDY    43  25  49 W14G28    29.92R
6HR MIN TEMP:  41; 6HR MAX TEMP:  45;

FRENCHVILLE    CLOUDY    36  25  64 W16G24    29.87R
6HR MIN TEMP:  36; 6HR MAX TEMP:  39; 6HR PCP: TRACE;

CARIBOU        MOCLDY    40  26  57 W13       29.90R
6HR MIN TEMP:  40; 6HR MAX TEMP:  43;

$$

NHZ002-005-008-009-011-012-014-260700-
NEW HAMPSHIRE

CITY           SKY/WX    TMP DP  RH WIND       PRES   REMARKS
PORTSMOUTH     CLOUDY    44  27  52 SW5       30.11R
ROCHESTER      MOCLDY    41  27  57 CALM      30.10R
6HR MIN TEMP:  40; 6HR MAX TEMP:  48;

NASHUA         CLOUDY    43  29  58 CALM      30.14R
MANCHESTER     CLOUDY    41  28  60 S6        30.11R
6HR MIN TEMP:  40; 6HR MAX TEMP:  50;

CONCORD        MOCLDY    31  27  85 SE3       30.12R
6HR MIN TEMP:  31; 6HR MAX TEMP:  43;

LACONIA        MOCLDY    37  27  65 SW6       30.09R
PLYMOUTH       FAIR      33  32  94 CALM      30.09S
BERLIN         CLOUDY    41  25  53 VRB7      30.06R
6HR MIN TEMP:  29; 6HR MAX TEMP:  42;

WHITEFIELD     CLOUDY    40  25  55 W7        30.07R
6HR MIN TEMP:  28; 6HR MAX TEMP:  40;

JAFFREY        MOCLDY    33  28  81 CALM      30.12R
6HR MIN TEMP:  33; 6HR MAX TEMP:  39;

LEBANON        CLOUDY    31  27  85 NE3       30.10R
6HR MIN TEMP:  28; 6HR MAX TEMP:  35;

MT WASHINGTON  FOG       16  16 100 W59         N/A  VSB 0   WCI -10
6HR MIN TEMP:  16; 6HR MAX TEMP:  18;

$$

VTZ005-007-008-260700-
VERMONT

CITY           SKY/WX    TMP DP  RH WIND       PRES   REMARKS
ST JOHNSBURY     N/A     41  26  55 MISG      30.09R
MONTPELIER     CLOUDY    38  27  64 N8        30.13R
BURLINGTON     CLOUDY    41  24  51 W15G21    30.16R
$$

MAZ007-012-024-CTZ003-RIZ002-NYZ038-NYZ072-260700-
SOUTHERN NEW ENGLAND AND NY

CITY           SKY/WX    TMP DP  RH WIND       PRES   REMARKS
BOSTON         CLOUDY    50  28  42 W7        30.13R
WORCESTER      CLOUDY    40  28  62 SW6       30.12R
NANTUCKET      CLOUDY    51  41  68 W7        30.15R
PROVIDENCE     CLOUDY    46  31  55 W5        30.13F
HARTFORD       CLOUDY    43  30  60 W7        30.15R
ALBANY         CLOUDY    40  29  64 NW8       30.18R
NEW YORK CITY  CLOUDY    51  29  42 NW8       30.15F
$$

ANZ081-ANZ082-ANZ150-NHZ014-MEZ023>029-260700-
COASTAL MARINE OBSERVATIONS

STATION/POSITION TIME  TEMP    WIND        PRES    WAVE
                       AIR SEA DIR/SP/G            HT/PER
                 (UTC) (F)     (DEG/KT/KT) (MB)    (FT/S)
MOUNT DESERT ROC 0500   50                 1017.4R
MATINICUS ROCK   0600          270/ 18/ 20 1018.2R
PORTLAND WX BUOY 0550   49 50  230/ 12/ 14 1018.7R   3/ 9
WELLS            0500   40 47  340/  1/  1 1018.0R
ISLE OF SHOALS   0600   48     240/ 14/ 15 1019.0R
JEFFREYS LEDGE   0551      51                N/A     4/10
CASHES LEDGE BUO 0550   51 51  280/ 12/ 16 1018.8R   5/ 9
$$

.............KEY..............
   WCI - WIND CHILL
   TC  - TEMPERATURE IN CELSIUS
   VSB - VISIBILITY IN MILES
   HX  - HEAT INDEX
   FAIR- INDICATES FEW OR NO CLOUDS BELOW 12,000 FT, WITH NO
         SIGNIFICANT WEATHER AND/OR OBSTRUCTIONS TO VISIBILITY.





USA.gov is the U.S. government's official web portal to all federal, state and local government web resources and services.